Terug naar catalogus

CZ-4B DEB

ActiefSSO
NORAD 25733·DEBRIS·🇨🇳 China

Gelanceerd May 10, 1999 vanaf Taiyuan Satellite Launch Center

Loading…

Volgende Passages (komende 24 uur)

TLE

VersSource: Space-Track

Epoch: Sep 14, 2026, 13:12 UTC

1 25733U 99025D   26257.55057257  .00000245  00000-0  13787-3 0  9993
2 25733  98.6746 299.1747 0013126 282.4797  77.4911 14.18999760412698

Volg CZ-4B DEB in realtime met AllMySat

Download on the App Store